Time,TemperatureF,DewpointF,PressureIn,WindDirection,WindDirectionDegrees,WindSpeedMPH,WindSpeedGustMPH,Humidity,HourlyPrecipIn,Conditions,Clouds,dailyrainin,SolarRadiationWatts/m^2,SoftwareType,DateUTC
2013-07-30 00:00:00,56.0,54.3,30.12,WNW,287,0.0,0.0,94,0.00,CLR,,0.01,0.0,WeatherDisplay:10.37,2013-07-30 04:00:00,
2013-07-30 00:01:00,56.0,54.3,30.12,WNW,287,0.0,0.0,94,0.00,CLR,,0.01,0.0,WeatherDisplay:10.37,2013-07-30 04:01:00,
2013-07-30 00:02:00,55.9,54.2,30.12,WNW,287,0.0,0.0,94,0.00,RA,,0.00,0.0,WeatherDisplay:10.37,2013-07-30 04:02:00,
2013-07-30 00:03:00,55.9,54.2,30.12,WNW,287,0.0,0.0,94,0.00,RA,,0.00,0.0,WeatherDisplay:10.37,2013-07-30 04:03:00,
2013-07-30 00:08:00,55.9,54.2,30.12,WNW,287,0.0,0.0,94,0.00,RA,,0.00,0.0,WeatherDisplay:10.37,2013-07-30 04:08:00,
2013-07-30 00:13:00,55.7,54.0,30.12,WNW,287,0.0,0.0,94,0.00,CLR,,0.00,0.0,WeatherDisplay:10.37,2013-07-30 04:13:00,
2013-07-30 00:18:00,55.4,53.7,30.12,WNW,287,0.0,0.0,94,0.00,CLR,,0.00,0.0,WeatherDisplay:10.37,2013-07-30 04:18:00,
2013-07-30 00:23:00,55.1,53.4,30.12,WNW,284,0.0,0.0,94,0.00,CLR,,0.00,0.0,WeatherDisplay:10.37,2013-07-30 04:23:00,
2013-07-30 00:28:00,55.3,53.6,30.12,WNW,284,0.0,0.0,94,0.00,CLR,,0.00,0.0,WeatherDisplay:10.37,2013-07-30 04:28:00,
2013-07-30 00:33:00,55.3,53.6,30.12,WNW,284,0.0,0.0,94,0.00,CLR,,0.00,0.0,WeatherDisplay:10.37,2013-07-30 04:33:00,
2013-07-30 00:38:00,55.4,54.0,30.12,WNW,284,0.0,0.0,95,0.00,CLR,,0.00,0.0,WeatherDisplay:10.37,2013-07-30 04:38:00,
2013-07-30 00:43:00,55.4,54.0,30.12,WNW,284,0.0,0.0,95,0.00,CLR,,0.00,0.0,WeatherDisplay:10.37,2013-07-30 04:43:00,
2013-07-30 00:48:00,55.1,53.4,30.12,WNW,284,0.0,0.0,94,0.00,CLR,,0.00,0.0,WeatherDisplay:10.37,2013-07-30 04:48:00,
2013-07-30 00:53:00,55.0,53.6,30.12,WNW,284,0.0,0.0,95,0.00,CLR,,0.00,0.0,WeatherDisplay:10.37,2013-07-30 04:53:00,
2013-07-30 00:58:00,55.1,53.7,30.12,WNW,284,0.0,0.0,95,0.00,CLR,,0.00,0.0,WeatherDisplay:10.37,2013-07-30 04:58:00,
2013-07-30 01:03:00,55.0,53.6,30.12,WNW,284,0.0,0.0,95,0.00,CLR,,0.00,0.0,WeatherDisplay:10.37,2013-07-30 05:03:00,
2013-07-30 01:08:00,55.0,53.6,30.12,WNW,284,0.0,0.0,95,0.00,CLR,,0.00,0.0,WeatherDisplay:10.37,2013-07-30 05:08:00,
2013-07-30 01:13:00,54.8,53.4,30.12,WNW,284,0.0,0.0,95,0.00,CLR,,0.00,0.0,WeatherDisplay:10.37,2013-07-30 05:13:00,
2013-07-30 01:18:00,54.8,53.4,30.12,WNW,284,0.0,0.0,95,0.00,CLR,,0.00,0.0,WeatherDisplay:10.37,2013-07-30 05:18:00,
2013-07-30 01:23:00,54.8,53.4,30.12,WNW,284,0.0,0.0,95,0.00,CLR,,0.00,0.0,WeatherDisplay:10.37,2013-07-30 05:23:00,
2013-07-30 01:28:00,54.8,53.4,30.12,WNW,284,0.0,0.0,95,0.00,CLR,,0.00,0.0,WeatherDisplay:10.37,2013-07-30 05:28:00,
2013-07-30 01:33:00,54.7,53.3,30.12,WNW,284,0.0,0.0,95,0.00,CLR,,0.00,0.0,WeatherDisplay:10.37,2013-07-30 05:33:00,
2013-07-30 01:38:00,54.7,53.3,30.12,WNW,284,0.0,0.0,95,0.00,CLR,,0.00,0.0,WeatherDisplay:10.37,2013-07-30 05:38:00,
2013-07-30 01:43:00,54.5,53.1,30.12,WNW,284,0.0,0.0,95,0.00,CLR,,0.00,0.0,WeatherDisplay:10.37,2013-07-30 05:43:00,
2013-07-30 01:48:00,54.4,53.0,30.12,WNW,284,0.0,0.0,95,0.00,CLR,,0.00,0.0,WeatherDisplay:10.37,2013-07-30 05:48:00,
2013-07-30 01:53:00,54.4,53.0,30.12,WNW,284,0.0,0.0,95,0.00,CLR,,0.00,0.0,WeatherDisplay:10.37,2013-07-30 05:53:00,
2013-07-30 01:58:00,54.2,52.8,30.12,WNW,284,0.0,0.0,95,0.00,CLR,,0.00,0.0,WeatherDisplay:10.37,2013-07-30 05:58:00,
2013-07-30 02:03:00,54.2,53.1,30.12,WNW,284,0.0,0.0,96,0.00,CLR,,0.00,0.0,WeatherDisplay:10.37,2013-07-30 06:03:00,
2013-07-30 02:08:00,54.2,53.1,30.12,WNW,284,0.0,0.0,96,0.00,CLR,,0.00,0.0,WeatherDisplay:10.37,2013-07-30 06:08:00,
2013-07-30 02:13:00,54.1,53.0,30.12,WNW,284,0.0,0.0,96,0.00,CLR,,0.00,0.0,WeatherDisplay:10.37,2013-07-30 06:13:00,
2013-07-30 02:18:00,54.1,53.0,30.12,WNW,284,0.0,0.0,96,0.00,CLR,,0.00,0.0,WeatherDisplay:10.37,2013-07-30 06:18:00,
2013-07-30 02:23:00,53.9,52.8,30.12,WNW,284,0.0,0.0,96,0.00,CLR,,0.00,0.0,WeatherDisplay:10.37,2013-07-30 06:23:00,
2013-07-30 02:28:00,53.8,52.7,30.13,WNW,284,0.0,0.0,96,0.00,CLR,,0.00,0.0,WeatherDisplay:10.37,2013-07-30 06:28:00,
2013-07-30 02:33:00,53.8,52.7,30.13,WNW,284,0.0,0.0,96,0.00,CLR,,0.00,0.0,WeatherDisplay:10.37,2013-07-30 06:33:00,
2013-07-30 02:38:00,53.8,52.7,30.13,WNW,284,0.0,0.0,96,0.00,CLR,,0.00,0.0,WeatherDisplay:10.37,2013-07-30 06:38:00,
2013-07-30 02:43:00,53.8,52.7,30.12,WNW,284,0.0,0.0,96,0.00,CLR,,0.00,0.0,WeatherDisplay:10.37,2013-07-30 06:43:00,
2013-07-30 02:48:00,53.9,52.8,30.12,WNW,284,0.0,0.0,96,0.00,CLR,,0.00,0.0,WeatherDisplay:10.37,2013-07-30 06:48:00,
2013-07-30 02:53:00,53.9,52.8,30.12,WNW,284,0.0,0.0,96,0.00,CLR,,0.00,0.0,WeatherDisplay:10.37,2013-07-30 06:53:00,
2013-07-30 02:58:00,53.9,52.8,30.12,WNW,284,0.0,0.0,96,0.00,CLR,,0.00,0.0,WeatherDisplay:10.37,2013-07-30 06:58:00,
2013-07-30 03:03:00,53.9,52.8,30.12,WNW,284,0.0,0.0,96,0.00,CLR,,0.00,0.0,WeatherDisplay:10.37,2013-07-30 07:03:00,
2013-07-30 03:08:00,53.9,52.8,30.12,WNW,284,0.0,0.0,96,0.00,CLR,,0.00,0.0,WeatherDisplay:10.37,2013-07-30 07:08:00,
2013-07-30 03:13:00,53.9,52.8,30.12,WNW,284,0.0,0.0,96,0.00,CLR,,0.00,0.0,WeatherDisplay:10.37,2013-07-30 07:13:00,
2013-07-30 03:18:00,53.8,52.7,30.12,WNW,284,0.0,0.0,96,0.00,CLR,,0.00,0.0,WeatherDisplay:10.37,2013-07-30 07:18:00,
2013-07-30 03:23:00,53.5,52.4,30.12,WNW,284,0.0,0.0,96,0.00,CLR,,0.00,0.0,WeatherDisplay:10.37,2013-07-30 07:23:00,
2013-07-30 03:28:00,53.3,52.2,30.11,WNW,284,0.0,0.0,96,0.00,CLR,,0.00,0.0,WeatherDisplay:10.37,2013-07-30 07:28:00,
2013-07-30 03:33:00,53.5,52.4,30.11,WNW,284,0.0,0.0,96,0.00,CLR,,0.00,0.0,WeatherDisplay:10.37,2013-07-30 07:33:00,
2013-07-30 03:38:00,53.5,52.4,30.11,WNW,284,0.0,0.0,96,0.00,CLR,,0.00,0.0,WeatherDisplay:10.37,2013-07-30 07:38:00,
2013-07-30 03:43:00,53.5,52.4,30.11,WNW,284,0.0,0.0,96,0.00,CLR,,0.00,0.0,WeatherDisplay:10.37,2013-07-30 07:43:00,
2013-07-30 03:48:00,53.5,52.4,30.11,WNW,284,0.0,0.0,96,0.00,CLR,,0.00,0.0,WeatherDisplay:10.37,2013-07-30 07:48:00,
2013-07-30 03:53:00,53.5,52.4,30.11,WNW,284,0.0,0.0,96,0.00,CLR,,0.00,0.0,WeatherDisplay:10.37,2013-07-30 07:53:00,
2013-07-30 03:58:00,53.6,52.5,30.11,WNW,284,0.0,0.0,96,0.00,CLR,,0.00,0.0,WeatherDisplay:10.37,2013-07-30 07:58:00,
2013-07-30 04:03:00,53.6,52.5,30.11,WNW,284,0.0,0.0,96,0.00,CLR,,0.00,0.0,WeatherDisplay:10.37,2013-07-30 08:03:00,
2013-07-30 04:08:00,53.6,52.5,30.11,WNW,284,0.0,0.0,96,0.00,CLR,,0.00,0.0,WeatherDisplay:10.37,2013-07-30 08:08:00,
2013-07-30 04:13:00,53.5,52.4,30.11,WNW,284,0.0,0.0,96,0.00,CLR,,0.00,0.0,WeatherDisplay:10.37,2013-07-30 08:13:00,
2013-07-30 04:18:00,53.5,52.4,30.11,WNW,284,0.0,0.0,96,0.00,CLR,,0.00,0.0,WeatherDisplay:10.37,2013-07-30 08:18:00,
2013-07-30 04:23:00,53.3,52.2,30.11,WNW,284,0.0,0.0,96,0.00,CLR,,0.00,0.0,WeatherDisplay:10.37,2013-07-30 08:23:00,
2013-07-30 04:28:00,53.3,52.2,30.12,WNW,284,0.0,0.0,96,0.00,CLR,,0.00,0.0,WeatherDisplay:10.37,2013-07-30 08:28:00,
2013-07-30 04:33:00,53.2,52.1,30.12,WNW,284,0.0,0.0,96,0.00,CLR,,0.00,0.0,WeatherDisplay:10.37,2013-07-30 08:33:00,
2013-07-30 04:38:00,53.2,52.1,30.12,WNW,284,0.0,0.0,96,0.00,CLR,,0.00,0.0,WeatherDisplay:10.37,2013-07-30 08:38:00,
2013-07-30 04:43:00,53.3,52.2,30.13,WNW,284,0.0,0.0,96,0.00,CLR,,0.00,0.0,WeatherDisplay:10.37,2013-07-30 08:43:00,
2013-07-30 04:48:00,53.8,52.7,30.13,WNW,284,0.0,0.0,96,0.00,CLR,,0.00,0.0,WeatherDisplay:10.37,2013-07-30 08:48:00,
2013-07-30 04:53:00,54.1,53.0,30.13,WNW,284,0.0,0.0,96,0.00,CLR,,0.00,0.0,WeatherDisplay:10.37,2013-07-30 08:53:00,
2013-07-30 04:58:00,54.2,53.1,30.12,WNW,284,0.0,0.0,96,0.00,CLR,,0.00,0.0,WeatherDisplay:10.37,2013-07-30 08:58:00,
2013-07-30 05:03:00,54.4,53.3,30.12,WNW,284,0.0,0.0,96,0.00,CLR,,0.00,0.0,WeatherDisplay:10.37,2013-07-30 09:03:00,
2013-07-30 05:08:00,54.7,53.6,30.12,WNW,284,0.0,0.0,96,0.00,CLR,,0.00,0.0,WeatherDisplay:10.37,2013-07-30 09:08:00,
2013-07-30 05:13:00,54.8,53.7,30.13,WNW,284,0.0,0.0,96,0.00,CLR,,0.00,0.0,WeatherDisplay:10.37,2013-07-30 09:13:00,
2013-07-30 05:18:00,54.7,53.6,30.13,WNW,284,0.0,0.0,96,0.00,CLR,,0.00,0.0,WeatherDisplay:10.37,2013-07-30 09:18:00,
2013-07-30 05:23:00,54.5,53.4,30.13,WNW,283,0.0,0.0,96,0.00,CLR,,0.00,0.0,WeatherDisplay:10.37,2013-07-30 09:23:00,
2013-07-30 05:28:00,54.5,53.4,30.12,WNW,283,1.0,1.0,96,0.00,CLR,,0.00,0.0,WeatherDisplay:10.37,2013-07-30 09:28:00,
2013-07-30 05:33:00,54.5,53.4,30.12,SSE,155,0.0,0.0,96,0.00,CLR,,0.00,0.0,WeatherDisplay:10.37,2013-07-30 09:33:00,
2013-07-30 05:38:00,54.5,53.4,30.12,SSE,155,0.0,0.0,96,0.00,CLR,,0.00,0.0,WeatherDisplay:10.37,2013-07-30 09:38:00,
2013-07-30 05:43:00,54.5,53.4,30.13,SSE,155,0.0,0.0,96,0.00,CLR,,0.00,0.0,WeatherDisplay:10.37,2013-07-30 09:43:00,
2013-07-30 05:48:00,54.8,54.0,30.13,SSE,155,0.0,0.0,97,0.00,CLR,,0.00,0.0,WeatherDisplay:10.37,2013-07-30 09:48:00,
2013-07-30 05:53:00,55.1,54.3,30.13,SSE,155,0.0,0.0,97,0.00,CLR,,0.00,0.0,WeatherDisplay:10.37,2013-07-30 09:53:00,
2013-07-30 05:58:00,55.4,54.6,30.13,SSE,155,0.0,0.0,97,0.00,CLR,,0.00,0.0,WeatherDisplay:10.37,2013-07-30 09:58:00,
2013-07-30 06:03:00,55.6,54.8,30.13,SSE,155,0.0,0.0,97,0.00,CLR,,0.00,5.0,WeatherDisplay:10.37,2013-07-30 10:03:00,
2013-07-30 06:09:00,55.9,55.1,30.13,SSE,155,0.0,0.0,97,0.00,CLR,,0.00,0.0,WeatherDisplay:10.37,2013-07-30 10:09:00,
2013-07-30 06:14:00,56.0,55.2,30.13,SSE,155,0.0,0.0,97,0.00,CLR,,0.00,0.0,WeatherDisplay:10.37,2013-07-30 10:14:00,
2013-07-30 06:19:00,56.2,55.4,30.13,SSE,155,0.0,0.0,97,0.00,CLR,,0.00,0.0,WeatherDisplay:10.37,2013-07-30 10:19:00,
2013-07-30 06:24:00,56.3,55.5,30.13,SSE,155,0.0,0.0,97,0.00,CLR,,0.00,0.0,WeatherDisplay:10.37,2013-07-30 10:24:00,
2013-07-30 06:29:00,56.5,55.7,30.14,SSE,155,0.0,0.0,97,0.00,CLR,,0.00,0.0,WeatherDisplay:10.37,2013-07-30 10:29:00,
2013-07-30 06:34:00,56.7,55.9,30.14,SSE,155,0.0,0.0,97,0.00,CLR,,0.00,11.0,WeatherDisplay:10.37,2013-07-30 10:34:00,
2013-07-30 06:39:00,56.9,56.1,30.14,East,101,1.2,0.0,97,0.00,OVC,,0.00,19.0,WeatherDisplay:10.37,2013-07-30 10:39:00,
2013-07-30 06:44:00,57.0,56.2,30.14,East,101,0.0,0.0,97,0.00,OVC,,0.00,35.0,WeatherDisplay:10.37,2013-07-30 10:44:00,
2013-07-30 06:49:00,57.2,56.4,30.14,East,101,0.0,0.0,97,0.00,OVC,,0.00,51.0,WeatherDisplay:10.37,2013-07-30 10:49:00,
2013-07-30 06:54:00,57.5,56.7,30.14,East,101,0.0,0.0,97,0.00,OVC,,0.00,47.0,WeatherDisplay:10.37,2013-07-30 10:54:00,
2013-07-30 06:59:00,57.8,57.0,30.14,ENE,63,0.0,0.0,97,0.00,OVC,,0.00,72.0,WeatherDisplay:10.37,2013-07-30 10:59:00,
2013-07-30 07:04:00,58.1,57.3,30.14,ENE,63,0.0,0.0,97,0.00,OVC,,0.00,81.0,WeatherDisplay:10.37,2013-07-30 11:04:00,
2013-07-30 07:09:00,58.6,57.8,30.14,SSW,208,3.0,3.0,97,0.00,OVC,,0.00,84.0,WeatherDisplay:10.37,2013-07-30 11:09:00,
2013-07-30 07:14:00,58.9,58.1,30.15,SW,220,0.0,0.0,97,0.00,OVC,,0.00,74.0,WeatherDisplay:10.37,2013-07-30 11:14:00,
2013-07-30 07:19:00,59.2,58.3,30.15,SW,231,3.5,0.0,97,0.00,OVC,,0.00,58.0,WeatherDisplay:10.37,2013-07-30 11:19:00,
2013-07-30 07:24:00,59.3,58.4,30.15,NW,307,1.0,1.0,97,0.00,OVC,,0.00,74.0,WeatherDisplay:10.37,2013-07-30 11:24:00,
2013-07-30 07:29:00,59.5,58.6,30.15,WSW,258,3.5,3.5,97,0.00,OVC,,0.00,56.0,WeatherDisplay:10.37,2013-07-30 11:29:00,
2013-07-30 07:34:00,59.6,58.7,30.15,WSW,258,1.0,1.0,97,0.00,OVC,,0.00,67.0,WeatherDisplay:10.37,2013-07-30 11:34:00,
2013-07-30 07:39:00,59.8,58.9,30.15,WSW,250,3.0,3.0,97,0.00,OVC,,0.00,69.0,WeatherDisplay:10.37,2013-07-30 11:39:00,
2013-07-30 07:44:00,59.9,59.0,30.16,WSW,252,0.0,0.0,97,0.00,OVC,,0.00,88.0,WeatherDisplay:10.37,2013-07-30 11:44:00,
2013-07-30 07:49:00,59.9,59.0,30.16,WSW,252,0.0,0.0,97,0.00,OVC,,0.00,74.0,WeatherDisplay:10.37,2013-07-30 11:49:00,
2013-07-30 07:54:00,60.2,59.3,30.16,WSW,252,0.0,0.0,97,0.00,OVC,,0.00,206.0,WeatherDisplay:10.37,2013-07-30 11:54:00,
2013-07-30 07:59:00,60.7,59.8,30.16,WSW,248,3.5,3.5,97,0.00,OVC,,0.00,169.0,WeatherDisplay:10.37,2013-07-30 11:59:00,
2013-07-30 08:04:00,61.0,60.1,30.16,WSW,245,1.2,0.0,97,0.00,OVC,,0.00,74.0,WeatherDisplay:10.37,2013-07-30 12:04:00,
2013-07-30 08:09:00,60.7,59.6,30.16,WSW,245,0.0,0.0,96,0.00,OVC,,0.00,132.0,WeatherDisplay:10.37,2013-07-30 12:09:00,
2013-07-30 08:14:00,60.9,59.8,30.17,WSW,245,2.3,2.3,96,0.00,OVC,,0.00,183.0,WeatherDisplay:10.37,2013-07-30 12:14:00,
2013-07-30 08:19:00,61.5,60.6,30.17,WSW,241,4.0,4.0,97,0.00,BKN,,0.00,199.0,WeatherDisplay:10.37,2013-07-30 12:19:00,
2013-07-30 08:24:00,61.6,60.4,30.17,West,261,5.0,5.0,96,0.00,OVC,,0.00,169.0,WeatherDisplay:10.37,2013-07-30 12:24:00,
2013-07-30 08:29:00,61.6,60.4,30.17,WNW,295,3.0,0.0,96,0.00,OVC,,0.00,165.0,WeatherDisplay:10.37,2013-07-30 12:29:00,
2013-07-30 08:34:00,61.8,60.6,30.17,NW,311,3.5,3.5,96,0.00,OVC,,0.00,137.0,WeatherDisplay:10.37,2013-07-30 12:34:00,
2013-07-30 08:39:00,62.0,60.8,30.17,WNW,303,3.5,3.5,96,0.00,OVC,,0.00,116.0,WeatherDisplay:10.37,2013-07-30 12:39:00,
2013-07-30 08:44:00,62.1,60.9,30.18,West,265,3.5,3.5,96,0.00,OVC,,0.00,120.0,WeatherDisplay:10.37,2013-07-30 12:44:00,
2013-07-30 08:49:00,62.1,60.7,30.18,West,266,3.5,3.5,95,0.00,OVC,,0.00,229.0,WeatherDisplay:10.37,2013-07-30 12:49:00,
2013-07-30 08:54:00,62.4,60.9,30.18,West,265,9.0,9.0,95,0.00,OVC,,0.00,220.0,WeatherDisplay:10.37,2013-07-30 12:54:00,
2013-07-30 08:59:00,62.6,61.1,30.18,WNW,298,6.0,6.0,95,0.00,OVC,,0.00,265.0,WeatherDisplay:10.37,2013-07-30 12:59:00,
2013-07-30 09:04:00,63.2,61.4,30.18,West,281,6.0,6.0,94,0.00,OVC,,0.00,211.0,WeatherDisplay:10.37,2013-07-30 13:04:00,
2013-07-30 09:09:00,63.5,61.7,30.18,West,274,3.5,3.5,94,0.00,OVC,,0.00,162.0,WeatherDisplay:10.37,2013-07-30 13:09:00,
2013-07-30 09:14:00,63.9,61.8,30.18,WNW,298,4.6,0.0,93,0.00,BKN,,0.00,244.0,WeatherDisplay:10.37,2013-07-30 13:14:00,
2013-07-30 09:19:00,64.2,61.5,30.18,NW,312,4.0,4.0,91,0.00,BKN,,0.00,199.0,WeatherDisplay:10.37,2013-07-30 13:19:00,
2013-07-30 09:24:00,64.3,61.0,30.18,West,273,6.0,6.0,89,0.00,OVC,,0.00,204.0,WeatherDisplay:10.37,2013-07-30 13:24:00,
2013-07-30 09:29:00,64.8,61.5,30.18,WNW,298,10.0,10.0,89,0.00,SCT,,0.00,696.0,WeatherDisplay:10.37,2013-07-30 13:29:00,
2013-07-30 09:34:00,66.3,62.0,30.18,NNW,338,6.0,6.0,86,0.00,SCT,,0.00,179.0,WeatherDisplay:10.37,2013-07-30 13:34:00,
2013-07-30 09:39:00,66.1,60.8,30.18,WNW,284,3.5,3.5,83,0.00,OVC,,0.00,84.0,WeatherDisplay:10.37,2013-07-30 13:39:00,
2013-07-30 09:44:00,66.0,60.3,30.18,NW,317,5.8,5.8,82,0.00,OVC,,0.00,121.0,WeatherDisplay:10.37,2013-07-30 13:44:00,
2013-07-30 09:49:00,66.6,60.9,30.18,North,1,1.2,1.2,82,0.00,FEW,,0.00,663.0,WeatherDisplay:10.37,2013-07-30 13:49:00,
2013-07-30 09:54:00,67.6,60.5,30.18,WNW,299,4.0,4.0,78,0.00,FEW,,0.00,789.0,WeatherDisplay:10.37,2013-07-30 13:54:00,
2013-07-30 09:59:00,68.8,61.3,30.18,NNW,340,9.2,9.2,77,0.00,CLR,,0.00,867.0,WeatherDisplay:10.37,2013-07-30 13:59:00,
2013-07-30 10:04:00,68.4,59.8,30.18,NNW,337,10.4,10.4,74,0.00,OVC,,0.00,209.0,WeatherDisplay:10.37,2013-07-30 14:04:00,
2013-07-30 10:09:00,68.4,60.9,30.18,NNW,330,4.6,4.6,77,0.00,BKN,,0.00,278.0,WeatherDisplay:10.37,2013-07-30 14:09:00,
2013-07-30 10:14:00,68.3,60.8,30.18,NW,304,5.0,5.0,77,0.00,OVC,,0.00,221.0,WeatherDisplay:10.37,2013-07-30 14:14:00,
2013-07-30 10:19:00,68.1,59.9,30.18,WNW,294,1.0,0.0,75,0.00,OVC,,0.00,174.0,WeatherDisplay:10.37,2013-07-30 14:19:00,
2013-07-30 10:24:00,67.9,60.1,30.18,West,277,7.0,7.0,76,0.00,OVC,,0.00,260.0,WeatherDisplay:10.37,2013-07-30 14:24:00,
2013-07-30 10:29:00,67.9,59.7,30.18,WSW,255,3.5,3.5,75,0.00,OVC,,0.00,178.0,WeatherDisplay:10.37,2013-07-30 14:29:00,
2013-07-30 10:34:00,67.9,60.1,30.18,WSW,239,3.5,3.5,76,0.00,OVC,,0.00,223.0,WeatherDisplay:10.37,2013-07-30 14:34:00,
2013-07-30 10:40:00,68.1,59.9,30.18,WNW,284,5.0,5.0,75,0.00,OVC,,0.00,209.0,WeatherDisplay:10.37,2013-07-30 14:40:00,
2013-07-30 10:45:00,67.9,59.7,30.19,WSW,258,1.2,1.2,75,0.00,OVC,,0.00,148.0,WeatherDisplay:10.37,2013-07-30 14:45:00,
2013-07-30 10:50:00,67.9,59.7,30.19,NW,315,3.5,3.5,75,0.00,OVC,,0.00,156.0,WeatherDisplay:10.37,2013-07-30 14:50:00,
2013-07-30 10:55:00,68.1,60.2,30.19,NW,315,3.5,3.5,76,0.00,OVC,,0.00,137.0,WeatherDisplay:10.37,2013-07-30 14:55:00,
2013-07-30 11:00:00,68.1,59.9,30.19,NW,312,0.0,0.0,75,0.00,OVC,,0.00,165.0,WeatherDisplay:10.37,2013-07-30 15:00:00,
2013-07-30 11:05:00,68.1,60.2,30.19,WNW,282,0.0,0.0,76,0.00,OVC,,0.00,237.0,WeatherDisplay:10.37,2013-07-30 15:05:00,
2013-07-30 11:10:00,68.4,59.8,30.18,NW,312,4.6,4.6,74,0.00,OVC,,0.00,325.0,WeatherDisplay:10.37,2013-07-30 15:10:00,
2013-07-30 11:15:00,69.4,59.6,30.18,WNW,296,6.0,6.0,71,0.00,BKN,,0.00,642.0,WeatherDisplay:10.37,2013-07-30 15:15:00,
2013-07-30 11:20:00,70.3,60.4,30.18,WNW,298,4.6,4.6,71,0.00,BKN,,0.00,520.0,WeatherDisplay:10.37,2013-07-30 15:20:00,
2013-07-30 11:25:00,70.6,59.9,30.18,WSW,254,8.1,8.1,69,0.00,OVC,,0.00,257.0,WeatherDisplay:10.37,2013-07-30 15:25:00,
2013-07-30 11:30:00,70.3,60.1,30.18,West,260,10.4,10.4,70,0.00,OVC,,0.00,221.0,WeatherDisplay:10.37,2013-07-30 15:30:00,
2013-07-30 11:35:00,69.6,59.4,30.18,WNW,284,2.3,2.3,70,0.00,OVC,,0.00,269.0,WeatherDisplay:10.37,2013-07-30 15:35:00,
2013-07-30 11:40:00,69.4,59.6,30.18,WNW,293,8.1,8.1,71,0.00,OVC,,0.00,330.0,WeatherDisplay:10.37,2013-07-30 15:40:00,
2013-07-30 11:45:00,69.1,58.1,30.18,WSW,237,7.0,7.0,68,0.00,BKN,,0.00,464.0,WeatherDisplay:10.37,2013-07-30 15:45:00,
2013-07-30 11:50:00,70.1,60.3,30.18,NW,311,8.1,8.1,71,0.00,FEW,,0.00,369.0,WeatherDisplay:10.37,2013-07-30 15:50:00,
2013-07-30 11:55:00,70.4,58.9,30.18,NW,324,13.0,13.0,67,0.00,BKN,,0.00,448.0,WeatherDisplay:10.37,2013-07-30 15:55:00,
2013-07-30 12:00:00,70.3,58.8,30.18,WNW,284,10.4,10.4,67,0.00,BKN,,0.00,480.0,WeatherDisplay:10.37,2013-07-30 16:00:00,
2013-07-30 12:05:00,70.3,59.2,30.18,WSW,245,11.5,11.5,68,0.00,SCT,,0.00,831.0,WeatherDisplay:10.37,2013-07-30 16:05:00,
2013-07-30 12:10:00,70.8,59.3,30.18,NW,317,12.7,12.7,67,0.00,FEW,,0.00,1097.0,WeatherDisplay:10.37,2013-07-30 16:10:00,
2013-07-30 12:15:00,71.1,59.2,30.18,NW,304,14.0,14.0,66,0.00,FEW,,0.00,687.0,WeatherDisplay:10.37,2013-07-30 16:15:00,
2013-07-30 12:20:00,71.3,59.8,30.18,WNW,296,14.0,14.0,67,0.00,CLR,,0.00,1130.0,WeatherDisplay:10.37,2013-07-30 16:20:00,
2013-07-30 12:25:00,71.5,59.1,30.17,NW,325,13.0,13.0,65,0.00,CLR,,0.00,933.0,WeatherDisplay:10.37,2013-07-30 16:25:00,
2013-07-30 12:30:00,72.0,60.4,30.17,WNW,286,10.0,10.0,67,0.00,CLR,,0.00,933.0,WeatherDisplay:10.37,2013-07-30 16:30:00,
2013-07-30 12:35:00,72.7,60.3,30.17,NW,326,13.0,13.0,65,0.00,CLR,,0.00,1139.0,WeatherDisplay:10.37,2013-07-30 16:35:00,
2013-07-30 12:40:00,72.7,59.4,30.17,NW,307,11.5,11.5,63,0.00,BKN,,0.00,292.0,WeatherDisplay:10.37,2013-07-30 16:40:00,
2013-07-30 12:45:00,72.5,58.3,30.17,NW,308,13.8,13.8,61,0.00,OVC,,0.00,288.0,WeatherDisplay:10.37,2013-07-30 16:45:00,
2013-07-30 12:50:00,71.6,59.2,30.17,WSW,247,13.0,13.0,65,0.00,OVC,,0.00,411.0,WeatherDisplay:10.37,2013-07-30 16:50:00,
2013-07-30 12:55:00,71.1,58.7,30.17,West,278,16.1,16.1,65,0.00,BKN,,0.00,638.0,WeatherDisplay:10.37,2013-07-30 16:55:00,
2013-07-30 13:00:00,70.8,57.6,30.17,WNW,296,17.3,17.3,63,0.00,BKN,,0.00,309.0,WeatherDisplay:10.37,2013-07-30 17:00:00,
2013-07-30 13:05:00,70.1,58.6,30.17,NW,308,17.3,17.3,67,0.00,BKN,,0.00,621.0,WeatherDisplay:10.37,2013-07-30 17:05:00,
2013-07-30 13:10:00,70.4,58.9,30.17,West,267,14.0,14.0,67,0.00,FEW,,0.00,1081.0,WeatherDisplay:10.37,2013-07-30 17:10:00,
2013-07-30 13:15:00,71.5,60.8,30.17,WSW,258,15.0,15.0,69,0.00,CLR,,0.00,1106.0,WeatherDisplay:10.37,2013-07-30 17:15:00,
2013-07-30 13:20:00,72.1,59.7,30.17,NW,323,12.0,12.0,65,0.00,CLR,,0.00,860.0,WeatherDisplay:10.37,2013-07-30 17:20:00,
2013-07-30 13:25:00,72.5,60.5,30.16,WNW,303,15.0,15.0,66,0.00,CLR,,0.00,939.0,WeatherDisplay:10.37,2013-07-30 17:25:00,
2013-07-30 13:30:00,72.3,57.2,30.16,West,268,12.0,12.0,59,0.00,CLR,,0.00,937.0,WeatherDisplay:10.37,2013-07-30 17:30:00,
2013-07-30 13:35:00,72.3,58.1,30.16,WSW,241,9.0,9.0,61,0.00,CLR,,0.00,947.0,WeatherDisplay:10.37,2013-07-30 17:35:00,
2013-07-30 13:40:00,72.1,59.2,30.15,SSW,212,14.0,14.0,64,0.00,CLR,,0.00,942.0,WeatherDisplay:10.37,2013-07-30 17:40:00,
2013-07-30 13:45:00,72.1,58.4,30.15,NW,320,5.0,5.0,62,0.00,CLR,,0.00,933.0,WeatherDisplay:10.37,2013-07-30 17:45:00,
2013-07-30 13:50:00,72.7,60.3,30.15,WSW,248,6.0,6.0,65,0.00,CLR,,0.00,926.0,WeatherDisplay:10.37,2013-07-30 17:50:00,
2013-07-30 13:55:00,73.2,60.7,30.15,WNW,286,11.5,11.5,65,0.00,CLR,,0.00,914.0,WeatherDisplay:10.37,2013-07-30 17:55:00,
2013-07-30 14:00:00,73.3,58.6,30.15,NNW,329,16.1,16.1,60,0.00,CLR,,0.00,907.0,WeatherDisplay:10.37,2013-07-30 18:00:00,
2013-07-30 14:05:00,72.8,57.6,30.15,WNW,296,13.0,13.0,59,0.00,CLR,,0.00,902.0,WeatherDisplay:10.37,2013-07-30 18:05:00,
2013-07-30 14:10:00,72.8,58.6,30.15,West,260,10.4,10.4,61,0.00,CLR,,0.00,905.0,WeatherDisplay:10.37,2013-07-30 18:10:00,
2013-07-30 14:15:00,73.0,59.2,30.15,West,260,12.0,12.0,62,0.00,CLR,,0.00,969.0,WeatherDisplay:10.37,2013-07-30 18:15:00,
2013-07-30 14:21:00,72.7,58.5,30.15,SW,214,10.4,10.4,61,0.00,SCT,,0.00,455.0,WeatherDisplay:10.37,2013-07-30 18:21:00,
2013-07-30 14:26:00,72.7,59.8,30.15,West,269,6.9,6.9,64,0.00,CLR,,0.00,1032.0,WeatherDisplay:10.37,2013-07-30 18:26:00,
2013-07-30 14:31:00,72.7,58.9,30.15,WNW,285,7.0,7.0,62,0.00,BKN,,0.00,601.0,WeatherDisplay:10.37,2013-07-30 18:31:00,
2013-07-30 14:36:00,72.8,59.0,30.15,SE,141,12.0,12.0,62,0.00,CLR,,0.00,937.0,WeatherDisplay:10.37,2013-07-30 18:36:00,
2013-07-30 14:41:00,73.0,58.8,30.15,West,277,11.5,11.5,61,0.00,CLR,,0.00,893.0,WeatherDisplay:10.37,2013-07-30 18:41:00,
2013-07-30 14:46:00,73.5,59.2,30.15,West,280,12.7,12.7,61,0.00,CLR,,0.00,940.0,WeatherDisplay:10.37,2013-07-30 18:46:00,
2013-07-30 14:51:00,74.0,60.2,30.15,SW,225,13.0,13.0,62,0.00,CLR,,0.00,977.0,WeatherDisplay:10.37,2013-07-30 18:51:00,
2013-07-30 14:56:00,74.2,59.9,30.14,SW,236,13.0,13.0,61,0.00,CLR,,0.00,295.0,WeatherDisplay:10.37,2013-07-30 18:56:00,
2013-07-30 15:01:00,73.5,58.8,30.14,WSW,254,14.0,14.0,60,0.00,BKN,,0.00,352.0,WeatherDisplay:10.37,2013-07-30 19:01:00,
2013-07-30 15:06:00,72.7,59.8,30.14,NW,305,15.0,15.0,64,0.00,BKN,,0.00,406.0,WeatherDisplay:10.37,2013-07-30 19:06:00,
2013-07-30 15:11:00,72.1,59.2,30.14,West,273,7.0,7.0,64,0.00,BKN,,0.00,417.0,WeatherDisplay:10.37,2013-07-30 19:11:00,
2013-07-30 15:16:00,72.7,61.5,30.14,SW,226,12.0,12.0,68,0.00,CLR,,0.00,923.0,WeatherDisplay:10.37,2013-07-30 19:16:00,
2013-07-30 15:21:00,73.2,59.8,30.14,NW,315,18.4,18.4,63,0.00,CLR,,0.00,956.0,WeatherDisplay:10.37,2013-07-30 19:21:00,
2013-07-30 15:26:00,73.5,61.4,30.14,SW,218,13.0,13.0,66,0.00,CLR,,0.00,840.0,WeatherDisplay:10.37,2013-07-30 19:26:00,
2013-07-30 15:31:00,73.7,60.3,30.14,WNW,285,10.0,10.0,63,0.00,CLR,,0.00,854.0,WeatherDisplay:10.37,2013-07-30 19:31:00,
2013-07-30 15:36:00,73.9,60.1,30.14,NW,318,11.5,11.5,62,0.00,CLR,,0.00,814.0,WeatherDisplay:10.37,2013-07-30 19:36:00,
2013-07-30 15:41:00,73.9,59.1,30.13,WSW,247,8.0,8.0,60,0.00,CLR,,0.00,786.0,WeatherDisplay:10.37,2013-07-30 19:41:00,
2013-07-30 15:46:00,73.9,61.4,30.13,NNW,342,11.0,11.0,65,0.00,CLR,,0.00,761.0,WeatherDisplay:10.37,2013-07-30 19:46:00,
2013-07-30 15:52:00,74.0,61.0,30.13,NNW,331,12.0,12.0,64,0.00,CLR,,0.00,779.0,WeatherDisplay:10.37,2013-07-30 19:52:00,
2013-07-30 15:57:00,73.7,58.9,30.13,NW,310,11.5,11.5,60,0.00,FEW,,0.00,144.0,WeatherDisplay:10.37,2013-07-30 19:57:00,
2013-07-30 16:02:00,73.5,60.1,30.13,WNW,290,15.0,15.0,63,0.00,CLR,,0.00,770.0,WeatherDisplay:10.37,2013-07-30 20:02:00,
2013-07-30 16:07:00,73.7,60.3,30.13,WSW,247,10.4,10.4,63,0.00,CLR,,0.00,789.0,WeatherDisplay:10.37,2013-07-30 20:07:00,
2013-07-30 16:12:00,73.9,59.1,30.13,NW,319,15.0,15.0,60,0.00,CLR,,0.00,729.0,WeatherDisplay:10.37,2013-07-30 20:12:00,
2013-07-30 16:17:00,73.7,59.4,30.13,West,273,13.0,13.0,61,0.00,CLR,,0.00,717.0,WeatherDisplay:10.37,2013-07-30 20:17:00,
2013-07-30 16:22:00,73.3,58.6,30.13,NW,307,13.8,13.8,60,0.00,CLR,,0.00,668.0,WeatherDisplay:10.37,2013-07-30 20:22:00,
2013-07-30 16:27:00,73.7,60.3,30.13,WNW,291,9.0,9.0,63,0.00,CLR,,0.00,663.0,WeatherDisplay:10.37,2013-07-30 20:27:00,
2013-07-30 16:32:00,73.9,59.6,30.13,WSW,241,7.0,7.0,61,0.00,CLR,,0.00,645.0,WeatherDisplay:10.37,2013-07-30 20:32:00,
2013-07-30 16:34:00,73.9,60.1,30.13,SW,234,10.4,10.4,62,0.00,CLR,,0.00,645.0,WeatherDisplay:10.37,2013-07-30 20:34:00,
2013-07-30 16:39:00,74.0,60.6,30.13,SSW,211,6.0,6.0,63,0.00,CLR,,0.00,629.0,WeatherDisplay:10.37,2013-07-30 20:39:00,
2013-07-30 16:44:00,74.0,59.7,30.13,West,260,11.5,11.5,61,0.00,CLR,,0.00,643.0,WeatherDisplay:10.37,2013-07-30 20:44:00,
2013-07-30 16:49:00,73.9,58.7,30.13,WSW,253,9.2,9.2,59,0.00,CLR,,0.00,160.0,WeatherDisplay:10.37,2013-07-30 20:49:00,
2013-07-30 16:54:00,73.7,58.9,30.13,WSW,254,8.0,8.0,60,0.00,CLR,,0.00,717.0,WeatherDisplay:10.37,2013-07-30 20:54:00,
2013-07-30 16:59:00,73.9,59.6,30.13,WSW,255,9.0,9.0,61,0.00,CLR,,0.00,717.0,WeatherDisplay:10.37,2013-07-30 20:59:00,
2013-07-30 17:04:00,73.5,59.2,30.13,WNW,282,11.0,11.0,61,0.00,BKN,,0.00,264.0,WeatherDisplay:10.37,2013-07-30 21:04:00,
2013-07-30 17:09:00,73.5,60.6,30.13,West,278,6.0,6.0,64,0.00,CLR,,0.00,81.0,WeatherDisplay:10.37,2013-07-30 21:09:00,
2013-07-30 17:14:00,73.3,60.4,30.13,NW,320,9.2,9.2,64,0.00,CLR,,0.00,559.0,WeatherDisplay:10.37,2013-07-30 21:14:00,
2013-07-30 17:19:00,73.5,60.1,30.13,WNW,300,3.5,3.5,63,0.00,CLR,,0.00,520.0,WeatherDisplay:10.37,2013-07-30 21:19:00,
2013-07-30 17:24:00,73.7,58.9,30.13,West,262,12.0,12.0,60,0.00,CLR,,0.00,506.0,WeatherDisplay:10.37,2013-07-30 21:24:00,
2013-07-30 17:29:00,73.7,58.9,30.13,NNW,338,5.0,5.0,60,0.00,CLR,,0.00,504.0,WeatherDisplay:10.37,2013-07-30 21:29:00,
2013-07-30 17:34:00,73.7,58.9,30.13,WSW,248,7.0,7.0,60,0.00,CLR,,0.00,432.0,WeatherDisplay:10.37,2013-07-30 21:34:00,
2013-07-30 17:39:00,73.5,58.3,30.13,South,183,1.0,1.0,59,0.00,CLR,,0.00,461.0,WeatherDisplay:10.37,2013-07-30 21:39:00,
2013-07-30 17:44:00,73.3,58.6,30.13,West,279,10.4,10.4,60,0.00,CLR,,0.00,396.0,WeatherDisplay:10.37,2013-07-30 21:44:00,
2013-07-30 17:49:00,73.2,58.5,30.13,West,266,15.0,15.0,60,0.00,CLR,,0.00,425.0,WeatherDisplay:10.37,2013-07-30 21:49:00,
2013-07-30 17:54:00,73.0,59.2,30.13,West,267,11.0,11.0,62,0.00,CLR,,0.00,311.0,WeatherDisplay:10.37,2013-07-30 21:54:00,
2013-07-30 17:59:00,72.8,58.6,30.13,WSW,255,5.0,5.0,61,0.00,CLR,,0.00,329.0,WeatherDisplay:10.37,2013-07-30 21:59:00,
2013-07-30 18:04:00,72.7,58.9,30.13,West,277,6.0,6.0,62,0.00,CLR,,0.00,376.0,WeatherDisplay:10.37,2013-07-30 22:04:00,
2013-07-30 18:09:00,72.5,57.8,30.13,West,270,4.0,4.0,60,0.00,CLR,,0.00,265.0,WeatherDisplay:10.37,2013-07-30 22:09:00,
2013-07-30 18:14:00,72.3,58.1,30.14,WSW,238,9.2,9.2,61,0.00,FEW,,0.00,95.0,WeatherDisplay:10.37,2013-07-30 22:14:00,
2013-07-30 18:19:00,72.0,58.3,30.14,NNW,338,1.2,0.0,62,0.00,BKN,,0.00,86.0,WeatherDisplay:10.37,2013-07-30 22:19:00,
2013-07-30 18:24:00,71.5,57.8,30.14,WNW,284,10.0,10.0,62,0.00,BKN,,0.00,93.0,WeatherDisplay:10.37,2013-07-30 22:24:00,
2013-07-30 18:29:00,70.9,58.1,30.13,West,267,6.0,6.0,64,0.00,SCT,,0.00,105.0,WeatherDisplay:10.37,2013-07-30 22:29:00,
2013-07-30 18:34:00,70.6,58.7,30.13,WSW,258,3.5,3.5,66,0.00,FEW,,0.00,113.0,WeatherDisplay:10.37,2013-07-30 22:34:00,
2013-07-30 18:39:00,70.1,58.2,30.14,West,280,5.0,5.0,66,0.00,CLR,,0.00,123.0,WeatherDisplay:10.37,2013-07-30 22:39:00,
2013-07-30 18:44:00,69.9,58.0,30.14,WSW,248,3.5,3.5,66,0.00,CLR,,0.00,134.0,WeatherDisplay:10.37,2013-07-30 22:44:00,
2013-07-30 18:49:00,69.9,58.9,30.14,WSW,254,3.5,3.5,68,0.00,CLR,,0.00,111.0,WeatherDisplay:10.37,2013-07-30 22:49:00,
2013-07-30 18:54:00,69.9,58.4,30.14,WSW,253,0.0,0.0,67,0.00,CLR,,0.00,84.0,WeatherDisplay:10.37,2013-07-30 22:54:00,
2013-07-30 18:59:00,69.8,58.8,30.14,SW,234,2.3,2.3,68,0.00,CLR,,0.00,72.0,WeatherDisplay:10.37,2013-07-30 22:59:00,
2013-07-30 19:04:00,69.4,58.4,30.14,SW,225,1.2,0.0,68,0.00,CLR,,0.00,79.0,WeatherDisplay:10.37,2013-07-30 23:04:00,
2013-07-30 19:09:00,69.4,59.2,30.14,SW,227,1.2,1.2,70,0.00,CLR,,0.00,79.0,WeatherDisplay:10.37,2013-07-30 23:09:00,
2013-07-30 19:14:00,69.1,58.9,30.14,SSW,210,1.2,1.2,70,0.00,CLR,,0.00,79.0,WeatherDisplay:10.37,2013-07-30 23:14:00,
2013-07-30 19:19:00,68.9,58.7,30.14,SW,223,3.0,3.0,70,0.00,CLR,,0.00,62.0,WeatherDisplay:10.37,2013-07-30 23:19:00,
2013-07-30 19:24:00,68.6,58.8,30.14,SW,221,0.0,0.0,71,0.00,OVC,,0.00,42.0,WeatherDisplay:10.37,2013-07-30 23:24:00,
2013-07-30 19:29:00,68.3,58.9,30.14,SW,224,0.0,0.0,72,0.00,OVC,,0.00,42.0,WeatherDisplay:10.37,2013-07-30 23:29:00,
2013-07-30 19:34:00,68.1,59.1,30.14,SW,224,0.0,0.0,73,0.00,OVC,,0.00,46.0,WeatherDisplay:10.37,2013-07-30 23:34:00,
2013-07-30 19:39:00,67.6,59.0,30.14,SW,224,0.0,0.0,74,0.00,OVC,,0.00,47.0,WeatherDisplay:10.37,2013-07-30 23:39:00,
2013-07-30 19:44:00,67.1,58.5,30.14,SW,224,0.0,0.0,74,0.00,CLR,,0.00,35.0,WeatherDisplay:10.37,2013-07-30 23:44:00,
2013-07-30 19:49:00,66.9,59.1,30.14,SW,224,0.0,0.0,76,0.00,CLR,,0.00,30.0,WeatherDisplay:10.37,2013-07-30 23:49:00,
2013-07-30 19:54:00,66.6,59.5,30.14,SW,224,0.0,0.0,78,0.00,CLR,,0.00,25.0,WeatherDisplay:10.37,2013-07-30 23:54:00,
2013-07-30 19:59:00,66.3,59.2,30.14,SW,224,0.0,0.0,78,0.00,CLR,,0.00,21.0,WeatherDisplay:10.37,2013-07-30 23:59:00,
2013-07-30 20:04:00,66.0,59.3,30.14,SW,224,1.2,0.0,79,0.00,CLR,,0.00,16.0,WeatherDisplay:10.37,2013-07-31 00:04:00,
2013-07-30 20:09:00,65.5,59.2,30.14,SW,224,0.0,0.0,80,0.00,CLR,,0.00,16.0,WeatherDisplay:10.37,2013-07-31 00:09:00,
2013-07-30 20:14:00,65.2,59.2,30.14,SW,224,0.0,0.0,81,0.00,CLR,,0.00,9.0,WeatherDisplay:10.37,2013-07-31 00:14:00,
2013-07-30 20:19:00,64.7,59.1,30.14,SW,224,0.0,0.0,82,0.00,CLR,,0.00,5.0,WeatherDisplay:10.37,2013-07-31 00:19:00,
2013-07-30 20:24:00,64.3,58.7,30.14,SW,224,0.0,0.0,82,0.00,CLR,,0.00,0.0,WeatherDisplay:10.37,2013-07-31 00:24:00,
2013-07-30 20:29:00,64.0,58.4,30.14,SW,224,0.0,0.0,82,0.00,CLR,,0.00,0.0,WeatherDisplay:10.37,2013-07-31 00:29:00,
2013-07-30 20:34:00,63.5,58.2,30.14,SW,224,0.0,0.0,83,0.00,CLR,,0.00,0.0,WeatherDisplay:10.37,2013-07-31 00:34:00,
2013-07-30 20:39:00,62.9,58.0,30.14,SW,224,0.0,0.0,84,0.00,CLR,,0.00,0.0,WeatherDisplay:10.37,2013-07-31 00:39:00,
2013-07-30 20:44:00,62.6,57.7,30.14,SW,224,0.0,0.0,84,0.00,CLR,,0.00,0.0,WeatherDisplay:10.37,2013-07-31 00:44:00,
2013-07-30 20:49:00,62.3,57.7,30.14,SW,224,0.0,0.0,85,0.00,CLR,,0.00,0.0,WeatherDisplay:10.37,2013-07-31 00:49:00,
2013-07-30 20:54:00,62.0,57.8,30.14,SW,224,0.0,0.0,86,0.00,CLR,,0.00,0.0,WeatherDisplay:10.37,2013-07-31 00:54:00,
2013-07-30 20:59:00,61.6,57.7,30.14,SW,224,0.0,0.0,87,0.00,CLR,,0.00,0.0,WeatherDisplay:10.37,2013-07-31 00:59:00,
2013-07-30 21:04:00,61.2,57.3,30.14,SW,224,0.0,0.0,87,0.00,CLR,,0.00,0.0,WeatherDisplay:10.37,2013-07-31 01:04:00,
2013-07-30 21:09:00,60.9,57.3,30.14,SW,224,0.0,0.0,88,0.00,CLR,,0.00,0.0,WeatherDisplay:10.37,2013-07-31 01:09:00,
2013-07-30 21:14:00,60.5,57.2,30.15,SW,224,0.0,0.0,89,0.00,CLR,,0.00,0.0,WeatherDisplay:10.37,2013-07-31 01:14:00,
2013-07-30 21:19:00,60.5,57.6,30.15,SW,224,0.0,0.0,90,0.00,CLR,,0.00,0.0,WeatherDisplay:10.37,2013-07-31 01:19:00,
2013-07-30 21:24:00,60.4,57.5,30.15,SW,223,0.0,0.0,90,0.00,CLR,,0.00,0.0,WeatherDisplay:10.37,2013-07-31 01:24:00,
2013-07-30 21:29:00,60.2,57.6,30.15,SW,223,0.0,0.0,91,0.00,CLR,,0.00,0.0,WeatherDisplay:10.37,2013-07-31 01:29:00,
2013-07-30 21:34:00,60.1,57.5,30.15,SW,223,0.0,0.0,91,0.00,CLR,,0.00,0.0,WeatherDisplay:10.37,2013-07-31 01:34:00,
2013-07-30 21:39:00,59.9,57.3,30.15,SW,223,0.0,0.0,91,0.00,CLR,,0.00,0.0,WeatherDisplay:10.37,2013-07-31 01:39:00,
2013-07-30 21:44:00,59.6,57.0,30.15,SW,223,0.0,0.0,91,0.00,CLR,,0.00,0.0,WeatherDisplay:10.37,2013-07-31 01:44:00,
2013-07-30 21:49:00,59.3,57.0,30.15,SW,223,0.0,0.0,92,0.00,CLR,,0.00,0.0,WeatherDisplay:10.37,2013-07-31 01:49:00,
2013-07-30 21:54:00,59.2,56.9,30.15,SW,223,0.0,0.0,92,0.00,CLR,,0.00,0.0,WeatherDisplay:10.37,2013-07-31 01:54:00,
2013-07-30 21:59:00,59.0,56.7,30.15,SW,223,0.0,0.0,92,0.00,CLR,,0.00,0.0,WeatherDisplay:10.37,2013-07-31 01:59:00,
2013-07-30 22:04:00,58.9,56.9,30.15,SW,223,0.0,0.0,93,0.00,CLR,,0.00,0.0,WeatherDisplay:10.37,2013-07-31 02:04:00,
2013-07-30 22:09:00,59.0,57.0,30.15,SW,223,0.0,0.0,93,0.00,CLR,,0.00,0.0,WeatherDisplay:10.37,2013-07-31 02:09:00,
2013-07-30 22:14:00,58.9,56.9,30.15,SW,223,0.0,0.0,93,0.00,CLR,,0.00,0.0,WeatherDisplay:10.37,2013-07-31 02:14:00,
2013-07-30 22:19:00,58.9,56.9,30.15,SW,223,0.0,0.0,93,0.00,CLR,,0.00,0.0,WeatherDisplay:10.37,2013-07-31 02:19:00,
2013-07-30 22:24:00,58.9,56.9,30.15,SW,223,0.0,0.0,93,0.00,CLR,,0.00,0.0,WeatherDisplay:10.37,2013-07-31 02:24:00,
2013-07-30 22:29:00,58.7,56.7,30.15,SW,223,0.0,0.0,93,0.00,CLR,,0.00,0.0,WeatherDisplay:10.37,2013-07-31 02:29:00,
2013-07-30 22:34:00,58.6,56.9,30.15,SW,223,0.0,0.0,94,0.00,CLR,,0.00,0.0,WeatherDisplay:10.37,2013-07-31 02:34:00,
2013-07-30 22:39:00,58.4,56.7,30.15,SW,223,0.0,0.0,94,0.00,CLR,,0.00,0.0,WeatherDisplay:10.37,2013-07-31 02:39:00,
2013-07-30 22:44:00,58.4,56.7,30.16,SW,223,0.0,0.0,94,0.00,CLR,,0.00,0.0,WeatherDisplay:10.37,2013-07-31 02:44:00,
2013-07-30 22:49:00,58.4,56.7,30.16,SW,223,0.0,0.0,94,0.00,CLR,,0.00,0.0,WeatherDisplay:10.37,2013-07-31 02:49:00,
2013-07-30 22:54:00,58.3,56.6,30.16,SW,223,0.0,0.0,94,0.00,CLR,,0.00,0.0,WeatherDisplay:10.37,2013-07-31 02:54:00,
2013-07-30 22:59:00,58.1,56.4,30.16,SW,223,0.0,0.0,94,0.00,CLR,,0.00,0.0,WeatherDisplay:10.37,2013-07-31 02:59:00,
2013-07-30 23:04:00,58.0,56.3,30.16,SW,223,0.0,0.0,94,0.00,CLR,,0.00,0.0,WeatherDisplay:10.37,2013-07-31 03:04:00,
2013-07-30 23:09:00,57.6,55.9,30.16,SW,223,0.0,0.0,94,0.00,CLR,,0.00,0.0,WeatherDisplay:10.37,2013-07-31 03:09:00,
2013-07-30 23:15:00,57.5,55.8,30.15,SW,223,0.0,0.0,94,0.00,CLR,,0.00,0.0,WeatherDisplay:10.37,2013-07-31 03:15:00,
2013-07-30 23:20:00,57.3,55.6,30.15,SW,223,0.0,0.0,94,0.00,CLR,,0.00,0.0,WeatherDisplay:10.37,2013-07-31 03:20:00,
2013-07-30 23:25:00,57.3,55.9,30.15,SW,223,0.0,0.0,95,0.00,CLR,,0.00,0.0,WeatherDisplay:10.37,2013-07-31 03:25:00,
2013-07-30 23:30:00,57.2,55.5,30.16,SW,223,0.0,0.0,94,0.00,CLR,,0.00,0.0,WeatherDisplay:10.37,2013-07-31 03:30:00,
2013-07-30 23:35:00,57.0,55.6,30.16,SW,223,0.0,0.0,95,0.00,CLR,,0.00,0.0,WeatherDisplay:10.37,2013-07-31 03:35:00,
2013-07-30 23:40:00,56.9,55.2,30.16,SW,223,0.0,0.0,94,0.00,CLR,,0.00,0.0,WeatherDisplay:10.37,2013-07-31 03:40:00,
2013-07-30 23:45:00,56.7,55.3,30.16,SW,223,0.0,0.0,95,0.00,CLR,,0.00,0.0,WeatherDisplay:10.37,2013-07-31 03:45:00,
2013-07-30 23:50:00,56.6,55.2,30.16,SW,223,0.0,0.0,95,0.00,CLR,,0.00,0.0,WeatherDisplay:10.37,2013-07-31 03:50:00,
2013-07-30 23:55:00,56.7,55.3,30.16,SW,223,1.2,1.2,95,0.00,CLR,,0.00,0.0,WeatherDisplay:10.37,2013-07-31 03:55:00,